User: anonymous   Login
Location: Bottens
(46.6171°N, 6.6605°E)
Time: 03:52:57
(UTC+00:00)
Language:

OE (NEXTSAT) - Orbit

View from above orbital plane
View from above orbital plane
View from above satellite
View from above satellite

Ground track
Ground track

The orbit data is extracted from the following two-line orbital elements,

1 30774U 07006C   21260.78135208  .00004612  00000-0  97931-4 0  9995
2 30774  46.0004  80.5206 0005925 306.8273  53.2089 15.46667549811547
Epoch (UTC): 17 September 2021 18:45:08
Eccentricity: 0.0005925
inclination: 46.0004°
perigee height: 422 km
apogee height: 430 km
right ascension of ascending node: 80.5206°
argument of perigee: 306.8273°
revolutions per day: 15.46667549
mean anomaly at epoch: 53.2089°
orbit number at epoch: 81154

The dashed part of the orbit path shows where the satellite is in the earth's shadow,  

DLR